Theta_e
337 337 322 315 302 298 296 302 319 319 320 325 326 323 322 324 320 311 332 338 344 348 356 357 361 362 362 362 362 362 362 362 362 362 362 362 362 360 360 360 359 355 353 351 350 349 351 352 353
328 325 313 305 297 292 296 302 313 319 322 328 327 325 323 321 328 331 332 345 346 351 354 354 361 362 362 362 361 361 362 362 362 361 361 361 361 359 359 358 356 354 351 349 348 351 353 356 357
315 313 307 300 293 294 296 306 313 319 322 324 326 329 326 324 332 333 338 347 349 352 351 353 361 361 362 362 360 360 361 361 361 361 360 360 360 360 359 357 355 351 349 346 351 354 357 358 357
310 308 305 299 295 299 300 307 317 316 313 319 326 322 330 338 335 337 346 349 351 352 350 357 361 361 362 362 360 360 361 361 361 361 361 360 359 359 358 356 353 349 346 349 354 356 357 354 353
305 303 296 293 296 300 303 305 306 306 307 315 323 322 330 339 344 345 347 351 350 351 349 356 361 361 361 361 360 359 359 360 361 361 360 360 359 358 356 354 350 347 347 352 355 356 353 351 350
300 299 292 290 293 301 303 305 305 302 303 315 320 328 331 340 342 346 349 348 352 349 350 354 359 360 360 361 361 359 359 359 360 361 361 360 358 356 355 353 351 349 351 353 354 354 349 349 349
298 294 290 290 292 296 302 301 300 300 302 317 329 325 332 336 342 345 347 350 350 351 351 352 354 358 360 360 360 359 358 358 359 359 359 359 357 355 354 352 352 352 353 354 355 353 350 349 349
298 296 290 292 292 294 301 301 301 300 304 326 334 322 324 332 342 346 347 349 349 351 350 350 352 353 354 355 359 359 358 358 359 359 358 356 355 354 353 351 351 353 354 354 355 352 350 349 343
299 292 287 291 292 294 300 298 302 305 304 306 331 332 335 339 343 343 344 346 347 349 349 351 351 351 352 351 354 358 357 357 357 356 356 352 348 348 348 350 351 353 354 355 355 353 351 340 334
298 290 292 296 296 295 298 296 301 303 303 311 327 332 334 337 338 338 338 339 342 344 347 349 349 351 351 353 350 349 350 350 350 350 349 345 345 344 347 348 352 354 354 355 349 342 339 331 324
296 294 297 299 300 299 299 299 303 300 300 303 311 326 330 332 336 336 337 339 340 344 347 348 346 347 348 349 347 346 345 346 346 346 345 344 344 343 345 343 342 346 348 345 338 331 328 323 323
293 297 299 298 300 298 298 300 301 301 303 307 307 323 331 329 331 334 335 337 340 342 345 347 347 348 347 346 347 345 344 344 343 343 343 341 340 340 340 342 343 345 343 337 334 326 324 321 322
291 294 296 298 298 297 299 299 299 299 305 306 307 329 329 329 330 334 336 337 339 340 344 346 348 346 346 344 345 343 343 344 342 341 342 341 339 337 340 342 344 344 337 333 326 323 321 322 322
296 294 295 295 295 296 297 297 298 301 303 305 314 329 328 329 330 330 334 334 336 339 342 345 346 345 344 343 342 342 341 342 341 340 341 340 339 336 338 344 344 339 326 323 320 322 322 322 323
294 291 294 293 294 294 297 294 295 301 301 302 303 323 323 325 328 331 333 334 336 336 340 342 344 344 342 342 341 339 340 340 339 339 339 341 340 338 340 339 336 330 322 322 321 322 323 324 324
291 289 287 291 294 297 296 290 298 300 299 300 301 303 306 315 324 332 334 335 336 336 336 340 345 343 341 341 339 337 337 339 338 338 338 340 341 342 337 331 327 321 322 320 320 321 322 323 325
288 284 285 290 293 294 293 291 298 300 298 298 299 300 301 302 304 316 333 336 335 335 335 336 341 340 339 340 338 337 337 337 337 337 337 339 342 343 332 325 323 324 322 320 321 321 323 323 324
285 284 285 286 292 293 289 292 295 297 298 298 299 299 300 300 302 304 312 334 336 336 335 335 338 338 337 338 337 335 334 335 335 335 338 339 342 336 328 323 323 323 322 321 322 322 321 323 324
290 287 287 290 293 291 290 291 294 296 296 296 297 298 298 299 301 302 305 327 335 335 334 333 334 335 334 334 333 331 330 333 334 336 339 340 338 332 325 323 323 322 322 322 321 319 322 320 323
289 286 287 290 292 292 290 291 294 295 296 296 296 297 301 304 308 305 304 311 332 334 333 332 332 332 332 333 333 332 332 334 335 338 339 339 334 329 324 323 323 322 321 321 323 321 318 319 322
288 287 287 289 292 291 289 288 291 295 295 299 301 302 303 304 307 312 314 309 328 333 334 332 332 333 332 332 333 335 335 337 337 337 337 336 333 329 325 324 325 321 322 322 324 323 320 317 320
286 292 292 291 288 285 290 282 288 292 292 299 299 301 302 304 308 314 320 323 319 332 337 335 334 333 334 333 333 332 332 332 335 337 336 331 329 328 325 326 326 323 322 322 323 324 324 320 318
292 295 292 292 287 284 286 283 286 289 291 296 300 302 303 305 306 312 319 325 325 330 335 335 335 335 337 335 337 334 334 336 337 335 331 331 327 327 326 326 325 324 322 322 324 325 324 322 319
295 293 291 286 285 280 285 285 283 291 295 297 301 302 304 305 306 309 315 326 329 331 335 337 335 336 339 338 338 337 336 333 331 328 328 329 326 325 326 327 325 324 322 323 324 326 324 322 321
293 287 281 280 279 280 286 283 287 298 300 300 299 301 303 305 306 309 310 320 324 328 331 336 336 337 339 338 336 337 336 332 333 329 330 326 323 324 326 326 325 324 323 324 325 325 324 322 321
287 288 282 278 279 281 288 283 293 301 302 303 303 303 304 305 306 309 311 314 323 325 330 332 332 332 333 335 335 336 331 329 330 330 330 326 325 325 326 326 326 326 325 325 325 325 324 323 321
288 283 286 283 283 281 284 292 298 301 301 302 302 304 303 305 306 307 310 314 320 324 325 328 331 331 331 331 334 333 331 329 329 329 328 327 328 329 328 328 325 327 327 326 326 324 325 322 322
289 291 285 284 278 278 282 285 291 296 298 299 299 300 301 304 305 307 309 311 313 320 324 326 326 325 328 331 333 334 331 330 329 328 328 328 328 329 329 329 329 327 328 328 327 323 324 323 322
285 285 286 287 284 276 277 281 299 298 299 299 300 300 300 301 304 305 307 309 312 316 318 321 321 323 324 326 327 329 332 331 330 329 328 329 329 330 330 329 327 327 327 326 325 323 325 322 322
291 288 285 280 278 282 281 282 299 298 299 301 302 303 303 302 304 305 305 308 310 310 312 315 320 321 324 325 325 326 328 331 332 330 329 329 329 330 330 329 328 329 329 327 325 325 325 324 321
Wind_Speed
5 3 1 4 5 5 4 5 2 1 4 3 6 5 9 5 8 7 3 13 13 17 15 17 21 20 18 16 15 14 16 17 17 15 14 12 12 11 9 7 7 7 7 7 8 9 9 7 5
4 2 4 2 5 3 6 4 2 5 3 2 4 2 1 7 4 3 6 8 13 17 13 13 21 21 19 18 17 16 15 16 16 15 13 12 10 10 8 6 6 5 5 5 6 8 9 7 5
5 2 4 5 4 5 4 4 5 3 7 5 3 3 5 4 5 2 5 16 16 15 14 12 19 20 20 18 19 17 16 15 15 15 13 12 9 7 6 5 4 3 4 4 6 7 8 7 6
3 4 5 5 6 7 5 1 3 4 8 9 3 3 2 5 6 5 8 16 19 13 11 15 18 18 19 20 18 18 17 16 15 14 14 12 10 7 5 4 3 2 3 4 6 7 8 6 5
5 3 3 2 5 6 5 2 3 3 5 9 3 5 3 3 8 7 8 11 18 12 8 11 15 17 17 17 15 15 15 15 15 14 13 11 10 7 6 4 2 1 3 5 8 8 6 5 6
5 4 3 4 5 5 6 4 3 4 5 10 3 2 1 2 12 7 8 4 7 14 11 11 16 14 15 17 15 13 13 12 12 13 12 10 8 7 5 4 2 1 2 5 7 7 6 7 4
7 5 5 3 3 5 4 1 3 4 6 5 3 1 1 2 11 12 7 6 5 8 9 9 10 14 15 13 14 13 12 11 10 10 10 9 8 6 5 3 3 1 2 5 6 6 7 8 9
6 5 4 4 4 6 3 3 3 2 8 4 6 4 5 6 11 17 10 7 5 4 7 6 8 8 10 7 13 12 12 11 10 9 9 8 7 6 5 4 3 2 2 4 6 6 8 8 10
4 5 2 4 6 6 4 4 4 3 5 6 4 1 2 8 11 18 13 7 5 6 4 6 7 8 8 8 8 12 14 13 11 9 9 6 3 2 2 2 3 2 3 4 5 6 6 7 10
5 5 10 6 5 3 5 1 5 5 8 4 4 5 8 12 9 11 14 14 11 9 7 6 5 8 8 7 7 5 6 4 5 5 5 3 3 3 3 3 4 3 3 5 6 8 6 5 3
5 6 7 6 8 4 4 4 3 2 8 5 6 3 8 10 9 11 12 16 15 11 9 7 6 6 8 6 5 4 3 3 3 6 5 4 3 2 1 1 1 1 1 2 3 4 3 4 3
2 6 6 4 5 4 5 2 7 7 11 9 6 8 8 10 12 14 15 14 12 10 9 9 7 8 9 4 6 6 6 4 4 4 6 4 2 3 2 2 2 2 0 2 2 1 3 4 4
5 5 4 7 8 7 1 7 7 7 12 11 7 6 9 10 12 7 7 12 15 15 14 12 12 13 10 8 6 6 8 7 6 5 6 5 4 4 3 3 2 2 1 1 1 1 3 3 3
7 4 5 6 6 4 5 5 5 7 5 8 2 10 9 11 9 7 9 11 15 15 17 15 14 15 11 9 9 7 6 7 7 6 6 7 5 4 4 3 3 2 2 3 3 2 3 3 2
1 4 6 3 1 3 7 4 5 8 5 9 9 7 7 9 10 17 16 17 16 13 12 14 14 11 13 14 9 5 5 5 6 7 7 8 6 6 5 3 3 3 3 4 3 3 2 4 3
3 5 2 5 2 4 5 7 8 7 2 6 9 9 8 12 11 12 14 17 15 14 16 14 13 15 15 11 7 5 4 5 6 6 6 8 8 7 5 4 4 4 4 3 3 3 2 3 3
6 2 2 7 3 2 3 5 8 10 4 8 7 8 9 9 10 9 10 14 16 19 17 18 16 14 10 8 6 8 7 6 4 4 5 8 8 7 5 4 4 5 4 3 3 1 2 2 2
4 1 3 4 5 5 2 9 7 7 4 7 8 7 8 9 13 10 8 10 14 14 16 15 16 16 14 9 7 5 4 5 5 6 7 8 7 7 6 4 5 4 4 3 2 3 2 2 2
4 2 5 5 6 2 6 6 12 8 5 8 7 7 8 9 9 11 8 8 10 10 13 15 16 18 13 10 11 10 11 7 7 8 10 9 8 9 8 5 5 5 5 5 5 3 3 2 2
4 3 7 10 1 6 5 9 10 8 7 3 7 7 8 10 7 10 12 5 8 14 18 17 19 17 15 12 11 7 6 6 8 7 8 9 10 11 10 9 7 7 5 6 5 4 3 2 3
4 5 5 9 5 4 2 6 5 5 1 7 7 6 6 9 14 13 12 11 7 9 14 17 19 20 18 17 7 3 4 1 5 6 6 6 7 8 10 10 8 7 5 6 5 5 6 4 1
3 9 8 6 3 3 3 4 6 7 3 8 11 12 12 13 10 11 14 13 11 13 13 15 15 17 15 15 14 18 14 10 5 5 4 5 8 9 9 10 9 9 4 6 5 4 3 4 4
9 5 7 3 4 3 3 5 9 3 4 7 12 13 12 12 12 15 14 14 14 9 6 5 6 11 12 13 7 6 8 6 4 4 8 7 5 7 8 8 7 7 5 5 6 5 5 3 4
3 2 5 5 4 1 7 6 4 5 6 6 11 11 12 13 12 12 15 12 14 8 4 5 8 8 9 11 10 13 13 6 5 5 8 7 6 4 5 6 6 5 4 5 6 5 6 5 4
7 6 3 4 2 6 3 4 2 4 4 5 8 11 12 10 12 13 17 17 15 14 9 2 6 4 6 8 7 8 11 10 12 8 6 9 5 3 5 6 6 5 5 4 3 4 4 4 4
4 3 6 6 3 3 5 1 1 2 4 5 6 7 7 10 10 12 13 13 16 16 14 11 9 8 8 6 5 5 7 4 4 8 7 7 9 9 9 8 8 7 7 6 5 3 3 4 4
3 5 2 6 3 3 2 3 1 1 4 6 7 8 9 10 9 10 12 12 14 15 16 12 9 9 9 7 5 2 6 7 5 4 5 5 7 1 4 8 7 7 6 8 7 5 4 4 4
6 3 1 3 3 2 4 3 5 2 5 6 6 7 10 11 11 11 10 11 9 10 10 12 11 8 7 5 4 4 5 10 6 10 3 4 5 8 4 6 6 6 8 6 8 5 4 5 3
4 3 4 3 3 5 1 3 3 3 3 6 6 5 6 7 8 8 8 7 8 7 6 6 6 5 5 3 4 2 4 8 8 11 15 13 11 1 12 8 8 7 8 11 7 7 7 8 6
3 2 3 5 3 2 4 5 4 4 6 6 10 7 8 5 7 7 7 6 6 6 6 6 5 5 3 4 6 5 6 9 12 10 8 11 16 15 17 7 5 7 9 7 12 8 8 10 10
Wind_Direction
125 128 29 41 47 57 284 269 263 294 306 207 141 164 189 186 173 211 335 181 144 148 159 161 158 156 152 146 145 140 137 133 132 133 133 131 128 129 132 127 114 98 84 77 80 78 69 59 52
124 113 33 73 83 32 277 273 204 220 256 209 202 105 93 239 231 156 129 152 157 148 155 164 162 157 155 151 151 148 144 139 136 135 133 131 132 136 134 122 106 89 77 68 67 67 62 49 36
132 51 85 93 108 198 219 262 187 256 265 266 151 182 186 268 339 247 190 154 141 148 155 166 165 160 155 158 156 153 148 143 140 138 139 140 141 140 131 120 105 82 56 44 54 59 61 46 29
111 16 30 102 212 250 216 70 352 325 305 286 117 257 122 66 343 351 147 149 137 144 152 167 166 163 160 161 162 157 154 151 147 147 148 150 151 145 141 134 116 74 31 16 28 39 50 49 36
36 59 68 133 244 269 260 255 325 333 281 270 166 220 177 59 47 85 122 150 138 138 135 161 167 164 162 164 165 161 158 155 151 153 154 155 154 153 155 151 152 94 13 2 9 21 37 40 19
47 96 76 222 246 259 288 283 360 326 281 294 210 107 321 156 86 66 99 104 138 143 147 163 165 167 165 164 166 166 161 158 156 155 155 155 159 163 163 171 188 193 14 2 358 3 11 23 359
123 94 206 195 249 293 248 351 2 310 286 297 306 15 237 124 130 107 83 78 116 138 144 166 160 166 165 168 165 167 162 161 160 160 158 159 168 173 170 189 226 269 13 359 347 352 5 1 337
106 94 141 233 197 262 271 345 284 345 290 275 179 215 262 195 153 110 97 88 96 129 147 165 153 168 147 159 170 169 164 163 166 165 167 172 179 179 175 196 255 291 356 348 340 353 12 355 359
129 69 201 238 158 243 291 15 284 269 275 301 337 243 291 115 134 117 120 125 138 162 171 163 166 155 149 142 172 175 176 169 171 178 180 182 169 178 192 231 254 292 326 335 342 352 20 8 18
104 131 210 215 192 233 286 292 299 342 314 325 325 48 106 124 133 139 156 167 172 187 174 170 168 167 167 161 153 160 177 172 171 175 186 168 173 170 185 240 279 293 322 335 353 11 59 36 28
172 197 201 233 227 208 256 298 228 229 304 246 264 180 150 157 169 166 178 182 176 170 178 181 169 170 179 168 154 153 170 168 180 181 177 174 177 188 197 216 284 329 333 338 359 12 53 46 46
165 229 196 239 220 152 252 276 288 183 244 253 243 227 181 179 187 184 183 179 162 162 187 186 185 186 195 167 175 170 167 176 185 192 178 168 188 190 204 219 220 210 243 314 356 46 53 55 81
176 253 234 252 280 239 312 262 241 267 267 281 278 160 190 193 209 203 184 178 167 179 183 194 192 201 198 185 181 182 182 185 184 185 191 174 186 198 194 219 232 210 171 216 104 74 99 94 88
192 228 280 282 263 237 185 271 138 280 283 296 216 203 203 203 193 183 180 194 194 179 188 185 188 197 188 188 187 196 192 189 183 185 196 192 187 183 200 208 213 203 180 160 147 160 125 115 106
260 303 332 249 252 273 155 329 237 267 358 315 303 251 243 215 182 204 198 197 192 199 176 193 191 196 190 193 185 198 194 185 198 193 191 199 197 193 190 197 201 192 177 154 123 110 111 112 108
45 48 51 288 309 322 126 262 278 306 349 295 276 283 258 269 229 222 204 202 190 180 183 180 190 197 204 187 167 184 198 199 207 206 190 202 202 203 184 181 190 165 163 158 132 148 115 111 136
6 234 243 315 333 14 54 269 268 304 318 298 294 274 283 278 270 255 215 205 194 191 180 184 189 192 200 200 183 186 202 204 199 192 204 205 197 191 175 181 175 161 155 153 156 123 109 125 138
215 220 258 224 278 16 306 265 280 286 329 297 295 307 298 296 276 268 244 208 202 194 190 190 183 190 185 180 179 195 196 197 187 198 202 201 195 169 167 168 160 160 145 157 152 129 76 118 133
176 194 257 255 220 244 254 266 283 300 307 288 282 353 333 315 321 307 275 224 198 180 184 188 187 192 175 180 190 198 207 203 204 201 200 192 184 172 165 168 156 165 171 168 159 123 121 85 136
166 191 260 279 212 158 271 267 270 269 250 44 29 10 350 332 354 329 329 285 210 194 194 189 196 188 190 190 197 200 188 210 212 209 193 186 191 172 168 167 181 174 159 154 161 144 125 112 179
191 187 224 231 344 229 254 320 324 314 122 64 30 349 337 343 334 338 333 314 257 199 204 201 199 194 192 190 167 115 111 97 191 201 193 195 196 183 171 169 170 178 172 168 165 160 145 134 135
244 211 234 226 72 265 116 275 310 280 309 27 10 0 348 346 339 337 339 322 299 240 203 203 204 199 196 186 180 190 197 193 208 178 167 158 178 185 178 168 175 182 164 160 171 171 157 140 153
224 170 199 215 169 88 320 105 263 289 64 356 357 353 343 340 341 340 340 327 303 276 237 258 236 212 190 193 189 176 205 193 158 149 146 178 177 176 181 169 172 174 172 165 170 158 171 159 139
306 281 63 58 102 103 232 161 313 359 318 338 348 346 343 342 349 350 338 357 355 327 230 200 185 198 175 173 187 186 193 156 156 157 165 186 180 175 155 169 173 161 158 170 180 175 167 176 168
55 68 322 332 18 217 292 82 264 339 20 359 330 331 329 334 0 3 6 3 7 3 347 146 146 142 164 165 167 188 196 185 182 157 179 169 150 162 174 163 170 164 181 176 153 160 155 166 181
49 112 159 208 197 284 296 57 84 93 36 353 334 310 320 3 5 12 12 13 17 9 20 26 43 43 64 86 143 158 139 156 164 174 182 184 186 169 159 170 169 169 153 150 153 157 169 168 172
0 53 166 102 27 94 286 76 58 333 2 4 348 346 340 338 358 1 4 22 31 29 19 11 39 56 51 58 66 80 115 126 146 67 35 15 340 52 171 172 150 153 161 162 155 158 173 191 177
54 343 87 18 186 237 293 205 150 345 344 339 353 337 332 336 349 354 3 360 2 23 40 29 27 14 11 14 72 86 119 131 175 126 74 173 89 298 157 167 173 156 145 158 158 163 168 178 207
353 351 37 98 119 162 185 260 181 218 287 293 306 300 297 312 323 333 344 349 350 5 22 7 41 9 15 360 334 221 150 170 199 174 177 197 148 226 311 279 170 148 175 163 170 168 179 179 200
143 189 161 124 254 243 153 256 62 16 331 316 309 319 298 275 279 295 320 332 360 2 357 352 6 26 359 354 344 319 245 183 177 186 211 192 156 166 222 253 215 186 168 187 153 190 199 190 203